Location: ????????
(55.6773°N, 38.2421°E)
Time: 07:35:09
(UTC+00:00)

SJ 16-02 - Pass Details

Date: 23 May 2024
Orbit: 594 x 606 km, 75.0° (Epoch: 24 June)

Event Time Altitude Azimuth Distance (km) Brightness Sun altitude
Exits shadow 00:03:55 - 191° (S) 2,311 3.7 -6.5°
Reaches altitude 10° 00:04:52 10° 189° (S) 1,928 3.4 -6.4°
Maximum altitude 00:09:05 59° 110° (ESE) 692 1.7 -6.0°
Drops below altitude 10° 00:13:21 10° 32° (NNE) 1,942 5.7 -5.7°
Sets 00:15:36 0° 29° (NNE) 2,849 6.9 -5.5°
